Location: Gerlach
(40.6516°N, 119.3568°W)
Time: 17:13:42
(UTC-07:00)

ITAMSAT 1 - Pass Details

Date: 05 August 2024
Orbit: 782 x 795 km, 98.8° (Epoch: 14 September)

Event Time Altitude Azimuth Distance (km) Brightness Sun altitude
Exits shadow 21:02:05 11° 144° (SE) 2,308 9.5 -10.0°
Maximum altitude 21:06:58 49° 71° (ENE) 1,015 8.0 -10.8°
Drops below altitude 10° 21:11:59 10° 357° (N) 2,369 10.7 -11.6°
Sets 21:14:23 0° 353° (N) 3,304 11.6 -12.0°
